GFSSE_prec_precacc24_021.txt.gz
Total_Precipitation_Accumulation
0.45 0.39 0.76 0.69 0.54 0.61 0.34 0.25 0.19 0.07 0.04 0.01 0.01 0.00 0.00 0.00 0.00 0.00 0.00 0.00 0.00 0.00 0.00 0.00 0.00 0.02 0.13 0.14 0.08 0.05 0.16 0.09 0.02 0.00 0.01 0.01 0.03 0.05 0.03 0.05 0.15 0.06 0.05
0.19 0.30 0.70 0.47 0.32 0.41 0.19 0.13 0.15 0.03 0.06 0.01 0.01 0.00 0.00 0.00 0.00 0.00 0.00 0.00 0.00 0.00 0.00 0.00 0.00 0.02 0.04 0.07 0.12 0.03 0.23 0.36 0.33 0.20 0.07 0.03 0.13 0.28 0.06 0.08 0.16 0.06 0.18
0.02 0.08 0.37 0.47 0.32 0.23 0.11 0.15 0.06 0.01 0.01 0.01 0.01 0.01 0.00 0.00 0.00 0.00 0.00 0.00 0.00 0.00 0.00 0.01 0.00 0.00 0.01 0.01 0.02 0.01 0.10 0.27 0.37 0.37 0.22 0.11 0.02 0.22 0.05 0.07 0.11 0.13 0.24
0.00 0.01 0.15 0.29 0.13 0.14 0.08 0.08 0.05 0.02 0.01 0.02 0.01 0.00 0.00 0.00 0.00 0.00 0.00 0.00 0.00 0.01 0.00 0.02 0.00 0.00 0.04 0.09 0.11 0.14 0.13 0.11 0.26 0.34 0.16 0.05 0.02 0.11 0.05 0.05 0.08 0.04 0.08
0.00 0.01 0.05 0.13 0.11 0.09 0.11 0.06 0.05 0.04 0.01 0.00 0.00 0.00 0.00 0.00 0.00 0.00 0.00 0.00 0.00 0.00 0.00 0.01 0.00 0.00 0.08 0.06 0.11 0.22 0.25 0.27 0.34 0.28 0.08 0.01 0.01 0.02 0.00 0.01 0.03 0.09 0.14
0.00 0.02 0.06 0.10 0.09 0.14 0.12 0.07 0.02 0.01 0.00 0.01 0.01 0.00 0.00 0.00 0.00 0.00 0.00 0.00 0.00 0.00 0.00 0.00 0.00 0.00 0.06 0.09 0.12 0.20 0.34 0.37 0.54 0.45 0.15 0.02 0.01 0.02 0.02 0.01 0.05 0.06 0.08
0.00 0.00 0.03 0.12 0.10 0.10 0.07 0.03 0.02 0.01 0.00 0.00 0.00 0.00 0.00 0.00 0.00 0.00 0.03 0.00 0.00 0.00 0.00 0.00 0.00 0.00 0.00 0.03 0.16 0.22 0.25 0.39 0.68 1.21 0.62 0.20 0.04 0.02 0.09 0.03 0.01 0.00 0.03
0.01 0.02 0.02 0.08 0.13 0.07 0.02 0.01 0.01 0.00 0.00 0.00 0.01 0.00 0.00 0.05 0.01 0.03 0.03 0.03 0.01 0.00 0.01 0.02 0.01 0.01 0.01 0.03 0.10 0.10 0.13 0.33 0.57 0.90 1.47 0.56 0.12 0.04 0.05 0.03 0.01 0.03 0.05
0.02 0.01 0.04 0.07 0.09 0.05 0.03 0.01 0.01 0.00 0.00 0.00 0.00 0.00 0.02 0.07 0.10 0.09 0.12 0.09 0.05 0.04 0.05 0.12 0.10 0.05 0.03 0.06 0.11 0.10 0.14 0.19 0.75 1.65 1.65 0.70 0.24 0.02 0.02 0.02 0.00 0.01 0.05
0.02 0.02 0.04 0.08 0.11 0.05 0.01 0.02 0.03 0.02 0.01 0.02 0.01 0.03 0.03 0.03 0.04 0.04 0.10 0.07 0.04 0.09 0.14 0.10 0.11 0.05 0.09 0.08 0.10 0.13 0.11 0.12 0.35 0.67 1.84 0.45 0.27 0.13 0.00 0.00 0.02 0.01 0.02
0.02 0.03 0.03 0.01 0.05 0.05 0.02 0.03 0.03 0.01 0.01 0.02 0.02 0.01 0.02 0.02 0.03 0.06 0.17 0.10 0.01 0.02 0.06 0.06 0.07 0.10 0.12 0.07 0.10 0.11 0.07 0.05 0.07 0.56 0.44 0.18 0.22 0.23 0.02 0.00 0.01 0.01 0.01
0.00 0.01 0.02 0.01 0.02 0.01 0.02 0.02 0.02 0.00 0.00 0.00 0.00 0.01 0.01 0.10 0.07 0.10 0.16 0.06 0.06 0.05 0.10 0.10 0.09 0.09 0.03 0.00 0.01 0.04 0.02 0.00 0.02 0.07 0.10 0.24 0.25 0.31 0.27 0.02 0.00 0.00 0.01
0.00 0.00 0.00 0.00 0.00 0.00 0.02 0.04 0.04 0.01 0.00 0.00 0.00 0.00 0.02 0.07 0.14 0.20 0.22 0.22 0.14 0.48 0.52 0.11 0.07 0.02 0.01 0.00 0.00 0.00 0.00 0.00 0.02 0.02 0.02 0.02 0.12 0.35 0.25 0.30 0.01 0.00 0.01
0.00 0.00 0.00 0.00 0.01 0.02 0.02 0.02 0.05 0.01 0.01 0.00 0.00 0.00 0.00 0.05 0.05 0.13 0.28 0.14 0.35 0.20 0.41 0.12 0.06 0.01 0.00 0.00 0.01 0.00 0.00 0.00 0.00 0.00 0.00 0.04 0.08 0.20 0.47 0.52 0.38 0.08 0.00
0.00 0.00 0.00 0.00 0.00 0.01 0.00 0.00 0.00 0.01 0.00 0.00 0.00 0.00 0.01 0.02 0.14 0.16 0.16 0.16 0.16 0.10 0.07 0.04 0.03 0.00 0.00 0.00 0.00 0.00 0.00 0.00 0.00 0.00 0.01 0.03 0.05 0.09 0.34 0.60 0.54 0.44 0.16
0.00 0.00 0.00 0.00 0.00 0.01 0.00 0.00 0.01 0.00 0.00 0.00 0.00 0.00 0.00 0.02 0.20 0.16 0.16 0.16 0.07 0.03 0.03 0.09 0.03 0.00 0.00 0.00 0.00 0.00 0.00 0.00 0.00 0.00 0.00 0.01 0.04 0.07 0.20 0.48 0.56 0.74 0.53
0.00 0.00 0.00 0.00 0.00 0.01 0.03 0.01 0.01 0.00 0.00 0.00 0.00 0.00 0.04 0.20 0.22 0.13 0.16 0.13 0.05 0.06 0.07 0.07 0.04 0.02 0.00 0.00 0.00 0.00 0.00 0.00 0.00 0.00 0.00 0.00 0.01 0.04 0.09 0.23 0.41 0.49 0.64
0.00 0.00 0.00 0.00 0.00 0.00 0.01 0.04 0.00 0.00 0.00 0.01 0.05 0.08 0.22 0.20 0.17 0.13 0.21 0.19 0.10 0.06 0.05 0.04 0.04 0.01 0.00 0.00 0.00 0.00 0.00 0.00 0.00 0.00 0.00 0.00 0.00 0.00 0.03 0.14 0.20 0.28 0.36
0.00 0.00 0.00 0.00 0.00 0.00 0.01 0.05 0.04 0.08 0.15 0.13 0.07 0.09 0.12 0.11 0.13 0.14 0.15 0.12 0.10 0.07 0.14 0.07 0.03 0.01 0.00 0.00 0.00 0.00 0.00 0.00 0.00 0.00 0.00 0.00 0.00 0.00 0.00 0.03 0.05 0.12 0.12
0.00 0.00 0.00 0.00 0.03 0.13 0.24 0.24 0.16 0.11 0.09 0.02 0.00 0.06 0.08 0.18 0.08 0.13 0.10 0.09 0.06 0.11 0.07 0.09 0.02 0.00 0.00 0.00 0.00 0.00 0.00 0.00 0.00 0.00 0.00 0.00 0.00 0.00 0.00 0.00 0.02 0.08 0.21
0.00 0.00 0.00 0.00 0.04 0.13 0.11 0.07 0.02 0.02 0.00 0.01 0.04 0.09 0.10 0.08 0.10 0.13 0.08 0.09 0.05 0.03 0.01 0.00 0.00 0.00 0.00 0.00 0.00 0.00 0.00 0.00 0.00 0.00 0.00 0.00 0.00 0.00 0.00 0.00 0.00 0.04 0.18
0.00 0.00 0.00 0.00 0.00 0.08 0.02 0.02 0.02 0.01 0.00 0.01 0.01 0.04 0.02 0.01 0.05 0.06 0.06 0.03 0.01 0.01 0.00 0.00 0.00 0.00 0.00 0.00 0.00 0.00 0.00 0.00 0.00 0.00 0.00 0.00 0.00 0.00 0.00 0.00 0.00 0.00 0.04
0.00 0.00 0.00 0.00 0.00 0.06 0.04 0.05 0.08 0.07 0.03 0.02 0.01 0.02 0.02 0.02 0.04 0.05 0.05 0.02 0.01 0.00 0.00 0.00 0.00 0.00 0.01 0.01 0.00 0.00 0.00 0.00 0.00 0.00 0.00 0.00 0.00 0.00 0.00 0.00 0.00 0.00 0.00
0.00 0.00 0.00 0.00 0.00 0.01 0.04 0.01 0.05 0.01 0.00 0.00 0.00 0.00 0.01 0.01 0.01 0.00 0.00 0.00 0.00 0.00 0.00 0.00 0.00 0.00 0.00 0.00 0.00 0.00 0.00 0.00 0.00 0.00 0.00 0.00 0.00 0.00 0.00 0.00 0.00 0.00 0.00
0.00 0.00 0.00 0.00 0.00 0.00 0.02 0.01 0.03 0.01 0.00 0.00 0.00 0.00 0.01 0.02 0.00 0.00 0.00 0.00 0.00 0.00 0.00 0.00 0.00 0.00 0.00 0.00 0.00 0.00 0.00 0.00 0.00 0.00 0.00 0.00 0.00 0.00 0.00 0.00 0.00 0.00 0.00
0.00 0.00 0.00 0.00 0.00 0.00 0.01 0.00 0.02 0.01 0.00 0.00 0.00 0.00 0.00 0.00 0.00 0.00 0.00 0.00 0.00 0.00 0.00 0.00 0.00 0.00 0.00 0.00 0.01 0.00 0.00 0.00 0.00 0.00 0.00 0.00 0.00 0.00 0.00 0.00 0.00 0.00 0.00

GFSSE_prec_precacc24_024.txt.gz
Total_Precipitation_Accumulation
0.45 0.40 0.86 0.84 0.69 0.71 0.37 0.26 0.20 0.07 0.04 0.01 0.01 0.00 0.00 0.00 0.00 0.00 0.00 0.00 0.00 0.00 0.00 0.00 0.00 0.02 0.13 0.14 0.08 0.05 0.16 0.09 0.02 0.00 0.01 0.01 0.04 0.06 0.03 0.05 0.15 0.06 0.06
0.19 0.31 0.79 0.66 0.53 0.47 0.20 0.14 0.15 0.03 0.06 0.01 0.01 0.00 0.00 0.00 0.00 0.00 0.00 0.00 0.00 0.01 0.01 0.00 0.00 0.02 0.05 0.07 0.13 0.03 0.23 0.36 0.33 0.20 0.07 0.03 0.16 0.32 0.07 0.08 0.16 0.06 0.19
0.02 0.09 0.47 0.68 0.47 0.23 0.11 0.15 0.06 0.01 0.01 0.01 0.01 0.01 0.00 0.00 0.00 0.00 0.00 0.00 0.00 0.00 0.03 0.03 0.01 0.00 0.03 0.06 0.03 0.03 0.12 0.30 0.38 0.37 0.22 0.11 0.03 0.24 0.06 0.07 0.11 0.13 0.25
0.00 0.01 0.23 0.51 0.18 0.14 0.08 0.08 0.05 0.02 0.01 0.02 0.01 0.00 0.00 0.00 0.00 0.00 0.00 0.00 0.00 0.01 0.00 0.05 0.05 0.05 0.08 0.11 0.14 0.19 0.14 0.12 0.27 0.34 0.16 0.05 0.02 0.14 0.05 0.05 0.09 0.05 0.11
0.00 0.01 0.13 0.19 0.13 0.09 0.11 0.06 0.05 0.04 0.01 0.00 0.00 0.00 0.00 0.00 0.00 0.00 0.00 0.00 0.00 0.00 0.00 0.02 0.01 0.03 0.11 0.06 0.11 0.22 0.25 0.29 0.35 0.28 0.08 0.01 0.01 0.03 0.00 0.01 0.03 0.09 0.14
0.00 0.03 0.13 0.12 0.09 0.14 0.12 0.07 0.02 0.01 0.00 0.01 0.01 0.00 0.00 0.00 0.00 0.00 0.00 0.00 0.00 0.00 0.00 0.00 0.00 0.00 0.06 0.09 0.12 0.21 0.39 0.45 0.69 0.45 0.15 0.02 0.01 0.02 0.02 0.01 0.06 0.07 0.08
0.00 0.03 0.04 0.13 0.10 0.10 0.07 0.03 0.02 0.01 0.00 0.00 0.00 0.00 0.00 0.00 0.00 0.00 0.03 0.00 0.00 0.00 0.00 0.00 0.00 0.00 0.00 0.03 0.16 0.24 0.31 0.42 0.70 1.21 0.62 0.20 0.04 0.02 0.10 0.03 0.02 0.01 0.03
0.01 0.02 0.02 0.08 0.13 0.07 0.02 0.01 0.01 0.00 0.00 0.00 0.01 0.00 0.00 0.05 0.01 0.03 0.03 0.03 0.01 0.00 0.01 0.02 0.02 0.01 0.01 0.03 0.10 0.11 0.16 0.33 0.57 0.90 1.47 0.56 0.12 0.04 0.08 0.04 0.01 0.03 0.05
0.02 0.01 0.04 0.07 0.09 0.05 0.03 0.01 0.01 0.00 0.00 0.00 0.00 0.00 0.02 0.07 0.10 0.09 0.12 0.09 0.05 0.04 0.06 0.13 0.10 0.05 0.03 0.06 0.11 0.10 0.14 0.19 0.75 1.65 1.65 0.70 0.24 0.03 0.02 0.02 0.01 0.01 0.06
0.02 0.02 0.04 0.08 0.11 0.05 0.01 0.02 0.03 0.02 0.01 0.02 0.01 0.03 0.03 0.03 0.04 0.04 0.10 0.07 0.04 0.09 0.15 0.11 0.12 0.06 0.10 0.08 0.10 0.13 0.11 0.12 0.35 0.67 1.84 0.45 0.28 0.13 0.00 0.00 0.03 0.01 0.03
0.02 0.03 0.03 0.01 0.05 0.05 0.02 0.03 0.03 0.01 0.01 0.02 0.02 0.01 0.03 0.02 0.04 0.06 0.17 0.10 0.01 0.02 0.06 0.06 0.07 0.13 0.15 0.07 0.10 0.14 0.09 0.05 0.07 0.56 0.44 0.18 0.23 0.23 0.03 0.01 0.02 0.02 0.01
0.00 0.01 0.02 0.01 0.02 0.01 0.02 0.02 0.02 0.00 0.00 0.00 0.00 0.01 0.01 0.10 0.07 0.10 0.16 0.06 0.06 0.05 0.10 0.10 0.10 0.10 0.04 0.00 0.01 0.04 0.04 0.00 0.02 0.07 0.10 0.24 0.28 0.31 0.27 0.03 0.01 0.02 0.04
0.00 0.00 0.00 0.00 0.00 0.00 0.02 0.04 0.04 0.01 0.00 0.00 0.00 0.00 0.02 0.07 0.16 0.21 0.22 0.22 0.14 0.48 0.52 0.11 0.07 0.02 0.01 0.00 0.00 0.00 0.00 0.00 0.02 0.02 0.02 0.02 0.14 0.52 0.28 0.30 0.01 0.00 0.03
0.00 0.00 0.00 0.00 0.01 0.02 0.02 0.02 0.05 0.01 0.01 0.00 0.00 0.00 0.00 0.05 0.06 0.13 0.28 0.14 0.35 0.20 0.41 0.12 0.06 0.01 0.00 0.00 0.01 0.00 0.00 0.00 0.00 0.00 0.00 0.04 0.08 0.35 0.67 0.56 0.38 0.08 0.01
0.00 0.00 0.00 0.00 0.00 0.01 0.00 0.00 0.00 0.01 0.00 0.00 0.00 0.00 0.01 0.02 0.14 0.16 0.16 0.16 0.16 0.10 0.07 0.04 0.03 0.00 0.00 0.00 0.00 0.00 0.00 0.00 0.00 0.00 0.01 0.04 0.07 0.13 0.42 0.72 0.61 0.44 0.16
0.00 0.00 0.00 0.00 0.00 0.01 0.00 0.00 0.01 0.00 0.00 0.00 0.00 0.00 0.00 0.04 0.20 0.16 0.16 0.16 0.07 0.05 0.03 0.09 0.03 0.00 0.00 0.00 0.00 0.00 0.00 0.00 0.00 0.00 0.00 0.01 0.05 0.08 0.22 0.50 0.71 0.88 0.54
0.00 0.00 0.00 0.00 0.00 0.01 0.03 0.01 0.01 0.00 0.00 0.00 0.00 0.00 0.04 0.20 0.23 0.13 0.16 0.13 0.06 0.07 0.07 0.07 0.04 0.02 0.00 0.00 0.00 0.00 0.00 0.00 0.00 0.00 0.00 0.00 0.01 0.05 0.10 0.26 0.46 0.59 0.81
0.00 0.00 0.00 0.00 0.00 0.00 0.01 0.04 0.00 0.00 0.00 0.01 0.05 0.08 0.22 0.20 0.17 0.14 0.21 0.20 0.10 0.06 0.05 0.04 0.04 0.01 0.00 0.00 0.00 0.00 0.00 0.00 0.00 0.00 0.00 0.00 0.00 0.00 0.04 0.16 0.22 0.30 0.37
0.00 0.00 0.00 0.00 0.00 0.00 0.01 0.05 0.04 0.08 0.15 0.13 0.07 0.09 0.12 0.11 0.13 0.19 0.15 0.12 0.10 0.07 0.14 0.07 0.03 0.01 0.00 0.00 0.00 0.00 0.00 0.00 0.00 0.00 0.00 0.00 0.00 0.00 0.00 0.04 0.06 0.14 0.13
0.00 0.00 0.00 0.00 0.03 0.13 0.24 0.24 0.16 0.11 0.09 0.02 0.00 0.06 0.08 0.18 0.08 0.14 0.11 0.09 0.06 0.11 0.07 0.09 0.02 0.00 0.00 0.00 0.00 0.00 0.00 0.00 0.00 0.00 0.00 0.00 0.00 0.00 0.00 0.00 0.02 0.09 0.22
0.00 0.00 0.00 0.00 0.04 0.13 0.11 0.07 0.02 0.02 0.00 0.01 0.04 0.09 0.10 0.08 0.10 0.13 0.08 0.09 0.05 0.03 0.01 0.00 0.00 0.00 0.00 0.00 0.00 0.00 0.00 0.00 0.00 0.00 0.00 0.00 0.00 0.00 0.00 0.00 0.00 0.04 0.19
0.00 0.00 0.00 0.00 0.00 0.08 0.02 0.02 0.02 0.01 0.00 0.01 0.01 0.04 0.02 0.01 0.05 0.06 0.06 0.03 0.01 0.01 0.00 0.00 0.00 0.00 0.00 0.00 0.00 0.00 0.00 0.00 0.00 0.00 0.00 0.00 0.00 0.00 0.00 0.00 0.00 0.00 0.04
0.00 0.00 0.00 0.00 0.00 0.06 0.04 0.05 0.08 0.07 0.03 0.02 0.01 0.02 0.02 0.02 0.04 0.05 0.05 0.02 0.01 0.00 0.00 0.00 0.00 0.00 0.01 0.01 0.00 0.00 0.00 0.00 0.00 0.00 0.00 0.00 0.00 0.00 0.00 0.00 0.00 0.00 0.00
0.00 0.00 0.00 0.00 0.00 0.01 0.04 0.01 0.05 0.01 0.00 0.00 0.00 0.00 0.01 0.01 0.01 0.00 0.00 0.00 0.00 0.00 0.00 0.00 0.00 0.00 0.00 0.00 0.00 0.00 0.00 0.00 0.00 0.00 0.00 0.00 0.00 0.00 0.00 0.00 0.00 0.00 0.00
0.00 0.00 0.00 0.00 0.00 0.00 0.02 0.01 0.03 0.01 0.00 0.00 0.00 0.00 0.01 0.02 0.00 0.00 0.00 0.00 0.00 0.00 0.00 0.00 0.00 0.00 0.00 0.00 0.00 0.00 0.00 0.00 0.00 0.00 0.00 0.00 0.00 0.00 0.00 0.00 0.00 0.00 0.00
0.00 0.00 0.00 0.00 0.00 0.00 0.01 0.00 0.02 0.01 0.00 0.00 0.00 0.00 0.00 0.00 0.00 0.00 0.00 0.00 0.00 0.00 0.00 0.00 0.00 0.00 0.00 0.00 0.01 0.00 0.00 0.00 0.00 0.00 0.00 0.00 0.00 0.00 0.00 0.00 0.00 0.00 0.00

GFSSE_prec_precacc24_030.txt.gz
Total_Precipitation_Accumulation
0.57 0.45 0.84 0.92 0.74 0.64 0.30 0.14 0.08 0.05 0.05 0.00 0.00 0.00 0.00 0.00 0.00 0.00 0.00 0.01 0.09 0.17 0.07 0.01 0.09 0.02 0.13 0.14 0.08 0.03 0.05 0.04 0.01 0.00 0.02 0.03 0.05 0.05 0.03 0.05 0.15 0.05 0.03
0.13 0.30 0.79 0.85 0.58 0.35 0.22 0.07 0.03 0.03 0.01 0.00 0.00 0.00 0.00 0.00 0.00 0.00 0.02 0.06 0.05 0.02 0.08 0.01 0.00 0.02 0.05 0.07 0.13 0.03 0.09 0.13 0.18 0.13 0.04 0.04 0.13 0.30 0.06 0.05 0.16 0.03 0.04
0.03 0.11 0.43 0.79 0.50 0.18 0.10 0.05 0.01 0.00 0.00 0.00 0.00 0.00 0.00 0.00 0.00 0.00 0.00 0.01 0.00 0.01 0.05 0.05 0.03 0.01 0.04 0.09 0.05 0.03 0.05 0.07 0.08 0.14 0.15 0.12 0.04 0.18 0.04 0.01 0.06 0.08 0.09
0.00 0.02 0.24 0.64 0.20 0.07 0.03 0.01 0.00 0.00 0.00 0.00 0.00 0.00 0.00 0.00 0.00 0.00 0.00 0.01 0.01 0.03 0.05 0.05 0.06 0.05 0.09 0.13 0.15 0.12 0.07 0.04 0.06 0.04 0.11 0.06 0.04 0.12 0.06 0.04 0.07 0.04 0.10
0.00 0.01 0.17 0.24 0.07 0.01 0.00 0.01 0.01 0.00 0.00 0.00 0.00 0.00 0.00 0.00 0.00 0.00 0.00 0.02 0.02 0.01 0.01 0.01 0.01 0.03 0.11 0.07 0.20 0.31 0.40 0.37 0.27 0.17 0.06 0.07 0.03 0.02 0.08 0.09 0.07 0.07 0.13
0.01 0.03 0.13 0.07 0.00 0.00 0.00 0.01 0.01 0.01 0.00 0.00 0.00 0.00 0.00 0.00 0.00 0.00 0.01 0.04 0.04 0.01 0.00 0.00 0.00 0.00 0.05 0.15 0.20 0.37 0.49 0.57 0.63 0.33 0.07 0.06 0.04 0.01 0.04 0.09 0.08 0.06 0.04
0.01 0.03 0.02 0.04 0.00 0.00 0.00 0.00 0.00 0.00 0.00 0.00 0.00 0.00 0.00 0.00 0.00 0.00 0.00 0.03 0.03 0.00 0.00 0.00 0.00 0.00 0.00 0.05 0.13 0.26 0.30 0.43 0.66 1.01 0.44 0.18 0.10 0.03 0.14 0.13 0.03 0.04 0.05
0.01 0.00 0.00 0.01 0.00 0.00 0.00 0.00 0.00 0.00 0.00 0.00 0.00 0.00 0.00 0.01 0.00 0.00 0.00 0.00 0.00 0.00 0.00 0.00 0.01 0.00 0.01 0.04 0.09 0.14 0.17 0.27 0.48 0.77 1.28 0.29 0.09 0.19 0.11 0.05 0.01 0.02 0.03
0.00 0.00 0.00 0.00 0.00 0.01 0.01 0.00 0.00 0.00 0.00 0.00 0.00 0.00 0.00 0.02 0.01 0.00 0.00 0.00 0.01 0.00 0.01 0.01 0.01 0.01 0.02 0.07 0.08 0.10 0.15 0.17 0.60 1.47 1.49 0.46 0.16 0.16 0.07 0.01 0.01 0.01 0.01
0.00 0.00 0.00 0.00 0.00 0.00 0.00 0.00 0.00 0.00 0.00 0.00 0.00 0.00 0.01 0.01 0.01 0.01 0.04 0.04 0.00 0.00 0.01 0.02 0.05 0.03 0.05 0.06 0.11 0.10 0.12 0.11 0.34 0.62 1.66 0.33 0.27 0.13 0.01 0.01 0.03 0.01 0.02
0.01 0.00 0.00 0.00 0.01 0.01 0.00 0.00 0.00 0.00 0.00 0.00 0.00 0.00 0.02 0.04 0.05 0.05 0.16 0.08 0.02 0.03 0.00 0.00 0.03 0.06 0.08 0.06 0.10 0.15 0.10 0.05 0.07 0.55 0.38 0.13 0.20 0.17 0.02 0.01 0.02 0.01 0.00
0.00 0.00 0.00 0.00 0.00 0.00 0.00 0.00 0.00 0.00 0.00 0.00 0.00 0.00 0.00 0.10 0.07 0.10 0.16 0.06 0.08 0.06 0.04 0.04 0.08 0.08 0.03 0.00 0.01 0.05 0.05 0.00 0.02 0.07 0.09 0.23 0.25 0.25 0.13 0.03 0.01 0.02 0.03
0.00 0.00 0.00 0.00 0.00 0.00 0.00 0.00 0.00 0.00 0.00 0.00 0.00 0.00 0.02 0.07 0.16 0.21 0.22 0.22 0.14 0.46 0.51 0.11 0.07 0.02 0.01 0.00 0.00 0.00 0.00 0.00 0.02 0.02 0.02 0.02 0.20 0.60 0.20 0.19 0.03 0.02 0.02
0.00 0.00 0.00 0.00 0.00 0.01 0.00 0.00 0.00 0.00 0.00 0.00 0.00 0.00 0.00 0.05 0.06 0.12 0.28 0.14 0.34 0.20 0.41 0.12 0.08 0.04 0.00 0.00 0.01 0.00 0.00 0.00 0.00 0.00 0.00 0.04 0.08 0.46 0.75 0.39 0.29 0.05 0.03
0.00 0.00 0.00 0.00 0.00 0.00 0.00 0.00 0.00 0.00 0.00 0.00 0.00 0.00 0.01 0.01 0.05 0.09 0.10 0.08 0.12 0.10 0.07 0.07 0.12 0.07 0.05 0.00 0.00 0.00 0.00 0.00 0.00 0.00 0.01 0.04 0.08 0.14 0.44 0.68 0.50 0.34 0.15
0.00 0.00 0.00 0.00 0.00 0.00 0.00 0.00 0.01 0.00 0.00 0.00 0.00 0.00 0.00 0.03 0.06 0.04 0.06 0.05 0.03 0.05 0.04 0.16 0.13 0.06 0.00 0.00 0.00 0.00 0.00 0.00 0.00 0.00 0.00 0.01 0.06 0.07 0.18 0.50 0.73 0.72 0.44
0.00 0.00 0.00 0.00 0.00 0.00 0.02 0.00 0.00 0.00 0.00 0.00 0.00 0.00 0.00 0.03 0.01 0.02 0.11 0.08 0.04 0.08 0.15 0.12 0.10 0.06 0.00 0.00 0.00 0.00 0.00 0.00 0.00 0.00 0.00 0.00 0.01 0.05 0.09 0.21 0.41 0.58 0.76
0.00 0.00 0.00 0.00 0.00 0.00 0.00 0.01 0.00 0.00 0.00 0.00 0.00 0.00 0.00 0.01 0.01 0.04 0.20 0.18 0.06 0.07 0.11 0.08 0.11 0.07 0.00 0.00 0.00 0.00 0.00 0.00 0.00 0.00 0.00 0.00 0.00 0.00 0.04 0.12 0.16 0.21 0.28
0.00 0.00 0.00 0.00 0.00 0.00 0.00 0.00 0.00 0.01 0.02 0.01 0.00 0.00 0.01 0.02 0.05 0.09 0.05 0.07 0.04 0.03 0.08 0.10 0.06 0.02 0.00 0.00 0.00 0.00 0.00 0.00 0.00 0.00 0.00 0.00 0.00 0.00 0.00 0.03 0.06 0.07 0.05
0.00 0.00 0.00 0.00 0.00 0.00 0.07 0.10 0.03 0.02 0.00 0.00 0.00 0.00 0.03 0.04 0.02 0.04 0.04 0.14 0.04 0.02 0.06 0.12 0.05 0.00 0.00 0.00 0.00 0.00 0.00 0.00 0.00 0.00 0.00 0.00 0.00 0.01 0.00 0.00 0.02 0.05 0.10
0.00 0.00 0.00 0.00 0.00 0.04 0.06 0.06 0.00 0.00 0.00 0.00 0.00 0.00 0.02 0.02 0.06 0.09 0.05 0.11 0.04 0.03 0.08 0.05 0.02 0.00 0.00 0.00 0.00 0.00 0.00 0.00 0.00 0.00 0.00 0.00 0.00 0.00 0.00 0.00 0.00 0.05 0.15
0.00 0.00 0.00 0.00 0.00 0.02 0.01 0.00 0.00 0.00 0.00 0.00 0.00 0.00 0.00 0.00 0.03 0.03 0.08 0.08 0.04 0.02 0.03 0.03 0.03 0.00 0.00 0.00 0.00 0.00 0.00 0.00 0.00 0.00 0.00 0.00 0.00 0.00 0.00 0.00 0.00 0.00 0.06
0.00 0.00 0.00 0.00 0.00 0.02 0.02 0.02 0.07 0.05 0.01 0.00 0.00 0.01 0.01 0.01 0.02 0.03 0.12 0.05 0.03 0.01 0.03 0.04 0.01 0.00 0.00 0.00 0.00 0.00 0.00 0.00 0.00 0.00 0.00 0.00 0.00 0.00 0.00 0.00 0.00 0.00 0.00
0.00 0.00 0.00 0.00 0.00 0.01 0.03 0.01 0.05 0.01 0.00 0.00 0.00 0.00 0.00 0.00 0.00 0.00 0.03 0.02 0.00 0.00 0.02 0.04 0.00 0.00 0.00 0.00 0.00 0.00 0.00 0.00 0.00 0.00 0.00 0.00 0.00 0.00 0.00 0.00 0.00 0.00 0.00
0.00 0.00 0.00 0.00 0.00 0.00 0.02 0.01 0.03 0.00 0.00 0.00 0.00 0.00 0.01 0.01 0.00 0.00 0.00 0.00 0.00 0.00 0.00 0.00 0.00 0.00 0.00 0.00 0.00 0.00 0.00 0.00 0.00 0.00 0.00 0.00 0.00 0.00 0.00 0.00 0.00 0.00 0.00
0.00 0.00 0.00 0.00 0.00 0.00 0.01 0.00 0.02 0.01 0.00 0.00 0.00 0.00 0.00 0.00 0.00 0.00 0.00 0.00 0.00 0.00 0.00 0.00 0.00 0.00 0.00 0.00 0.00 0.00 0.00 0.00 0.00 0.00 0.00 0.00 0.00 0.00 0.00 0.00 0.00 0.00 0.00

GFSSE_prec_precacc24_033.txt.gz
Total_Precipitation_Accumulation
0.46 0.40 0.76 0.77 0.61 0.59 0.28 0.14 0.08 0.05 0.05 0.00 0.00 0.00 0.00 0.00 0.00 0.00 0.00 0.02 0.13 0.18 0.07 0.01 0.09 0.02 0.13 0.14 0.08 0.03 0.05 0.04 0.01 0.00 0.02 0.03 0.05 0.05 0.05 0.06 0.09 0.03 0.03
0.09 0.29 0.76 0.78 0.53 0.28 0.16 0.07 0.03 0.02 0.00 0.00 0.00 0.00 0.00 0.00 0.00 0.02 0.03 0.07 0.06 0.03 0.09 0.01 0.00 0.02 0.05 0.07 0.14 0.03 0.09 0.13 0.17 0.14 0.04 0.03 0.13 0.30 0.06 0.04 0.11 0.02 0.04
0.08 0.16 0.43 0.76 0.39 0.09 0.08 0.02 0.01 0.00 0.00 0.00 0.00 0.00 0.00 0.01 0.00 0.00 0.01 0.02 0.01 0.01 0.06 0.05 0.03 0.01 0.04 0.09 0.06 0.03 0.05 0.07 0.08 0.17 0.28 0.10 0.04 0.18 0.04 0.08 0.10 0.05 0.08
0.01 0.04 0.25 0.63 0.17 0.05 0.02 0.00 0.00 0.00 0.00 0.00 0.00 0.00 0.00 0.01 0.00 0.00 0.01 0.01 0.01 0.03 0.05 0.05 0.06 0.05 0.09 0.13 0.15 0.13 0.07 0.04 0.06 0.11 0.18 0.07 0.04 0.12 0.07 0.06 0.06 0.05 0.09
0.02 0.02 0.19 0.24 0.07 0.01 0.00 0.00 0.00 0.00 0.00 0.00 0.00 0.00 0.00 0.00 0.00 0.00 0.00 0.02 0.02 0.01 0.01 0.01 0.01 0.03 0.11 0.07 0.19 0.32 0.40 0.37 0.27 0.18 0.06 0.07 0.02 0.03 0.12 0.14 0.07 0.06 0.08
0.01 0.04 0.13 0.08 0.01 0.00 0.00 0.01 0.01 0.01 0.00 0.00 0.00 0.00 0.00 0.00 0.00 0.00 0.01 0.04 0.04 0.01 0.00 0.00 0.00 0.00 0.05 0.15 0.18 0.37 0.49 0.58 0.59 0.26 0.06 0.05 0.04 0.01 0.08 0.22 0.12 0.05 0.02
0.02 0.03 0.02 0.07 0.02 0.00 0.00 0.00 0.00 0.00 0.00 0.00 0.00 0.00 0.00 0.00 0.00 0.00 0.00 0.03 0.03 0.00 0.00 0.00 0.00 0.00 0.00 0.05 0.13 0.26 0.30 0.42 0.61 1.00 0.42 0.17 0.10 0.05 0.15 0.14 0.03 0.05 0.08
0.01 0.00 0.00 0.01 0.00 0.00 0.00 0.00 0.00 0.00 0.00 0.00 0.00 0.00 0.00 0.01 0.00 0.00 0.00 0.00 0.00 0.00 0.00 0.00 0.01 0.00 0.01 0.04 0.10 0.15 0.17 0.27 0.43 0.73 1.27 0.29 0.09 0.20 0.12 0.06 0.02 0.04 0.04
0.00 0.00 0.00 0.00 0.00 0.01 0.01 0.00 0.00 0.00 0.00 0.00 0.00 0.00 0.00 0.02 0.01 0.00 0.00 0.00 0.00 0.00 0.01 0.01 0.01 0.01 0.02 0.07 0.08 0.10 0.15 0.17 0.61 1.46 1.46 0.38 0.16 0.19 0.08 0.01 0.03 0.03 0.02
0.00 0.00 0.00 0.00 0.00 0.00 0.00 0.00 0.00 0.00 0.00 0.00 0.00 0.00 0.01 0.01 0.01 0.01 0.03 0.02 0.00 0.00 0.01 0.02 0.05 0.03 0.05 0.06 0.11 0.10 0.13 0.11 0.34 0.61 1.66 0.31 0.27 0.17 0.01 0.01 0.03 0.01 0.02
0.00 0.00 0.00 0.00 0.00 0.00 0.00 0.00 0.00 0.00 0.00 0.00 0.00 0.00 0.10 0.09 0.08 0.05 0.15 0.07 0.02 0.03 0.00 0.00 0.03 0.06 0.08 0.06 0.10 0.15 0.10 0.05 0.07 0.53 0.36 0.13 0.20 0.17 0.01 0.01 0.02 0.01 0.00
0.00 0.00 0.00 0.00 0.00 0.00 0.00 0.00 0.00 0.00 0.00 0.00 0.00 0.00 0.17 0.11 0.08 0.10 0.15 0.06 0.08 0.06 0.04 0.04 0.08 0.09 0.04 0.00 0.01 0.05 0.06 0.00 0.02 0.06 0.07 0.23 0.25 0.24 0.06 0.02 0.01 0.02 0.03
0.00 0.00 0.00 0.00 0.00 0.00 0.00 0.00 0.00 0.00 0.00 0.00 0.00 0.03 0.13 0.08 0.17 0.30 0.22 0.22 0.14 0.46 0.46 0.21 0.14 0.03 0.01 0.00 0.00 0.00 0.00 0.00 0.02 0.02 0.00 0.02 0.20 0.60 0.18 0.12 0.03 0.02 0.02
0.00 0.00 0.00 0.00 0.00 0.01 0.00 0.00 0.00 0.00 0.00 0.00 0.00 0.00 0.00 0.09 0.07 0.15 0.28 0.14 0.30 0.19 0.41 0.20 0.14 0.04 0.01 0.00 0.01 0.00 0.00 0.00 0.00 0.00 0.00 0.04 0.08 0.46 0.75 0.37 0.15 0.01 0.03
0.00 0.00 0.00 0.00 0.00 0.00 0.00 0.00 0.00 0.00 0.00 0.00 0.00 0.00 0.01 0.03 0.04 0.09 0.10 0.08 0.12 0.10 0.07 0.07 0.12 0.07 0.05 0.00 0.00 0.00 0.00 0.00 0.00 0.00 0.01 0.04 0.08 0.14 0.43 0.68 0.40 0.23 0.10
0.00 0.00 0.00 0.00 0.00 0.00 0.00 0.00 0.01 0.00 0.00 0.00 0.00 0.00 0.00 0.03 0.01 0.04 0.06 0.05 0.04 0.05 0.06 0.16 0.13 0.07 0.00 0.00 0.00 0.00 0.00 0.00 0.00 0.00 0.00 0.01 0.06 0.07 0.16 0.45 0.72 0.66 0.33
0.00 0.00 0.00 0.00 0.00 0.00 0.00 0.00 0.00 0.00 0.00 0.00 0.00 0.00 0.00 0.01 0.00 0.05 0.11 0.08 0.04 0.08 0.15 0.11 0.08 0.06 0.00 0.00 0.00 0.00 0.00 0.00 0.00 0.00 0.00 0.00 0.01 0.05 0.09 0.17 0.36 0.56 0.74
0.00 0.00 0.00 0.00 0.00 0.00 0.00 0.01 0.00 0.00 0.00 0.00 0.00 0.00 0.00 0.00 0.01 0.08 0.21 0.18 0.06 0.07 0.11 0.07 0.11 0.07 0.00 0.00 0.00 0.00 0.00 0.00 0.00 0.00 0.00 0.00 0.00 0.00 0.04 0.11 0.15 0.18 0.30
0.00 0.00 0.00 0.00 0.00 0.00 0.00 0.00 0.00 0.00 0.00 0.00 0.00 0.00 0.00 0.01 0.04 0.10 0.14 0.14 0.04 0.02 0.04 0.07 0.05 0.02 0.00 0.00 0.00 0.00 0.00 0.00 0.00 0.00 0.00 0.00 0.00 0.00 0.00 0.03 0.05 0.07 0.04
0.00 0.00 0.00 0.00 0.00 0.00 0.01 0.02 0.01 0.00 0.00 0.00 0.00 0.00 0.01 0.02 0.02 0.03 0.03 0.13 0.03 0.01 0.04 0.08 0.04 0.00 0.00 0.00 0.00 0.00 0.00 0.00 0.00 0.00 0.00 0.00 0.00 0.01 0.00 0.00 0.02 0.05 0.11
0.00 0.00 0.00 0.00 0.00 0.00 0.00 0.00 0.00 0.00 0.00 0.00 0.00 0.00 0.00 0.01 0.03 0.06 0.05 0.11 0.02 0.03 0.08 0.05 0.02 0.00 0.00 0.00 0.00 0.00 0.00 0.00 0.00 0.00 0.00 0.00 0.00 0.00 0.00 0.00 0.00 0.05 0.12
0.00 0.00 0.00 0.00 0.00 0.00 0.00 0.00 0.00 0.00 0.00 0.00 0.00 0.00 0.00 0.00 0.02 0.02 0.13 0.11 0.04 0.06 0.05 0.06 0.03 0.01 0.00 0.00 0.00 0.00 0.00 0.00 0.00 0.00 0.00 0.00 0.00 0.00 0.00 0.00 0.00 0.00 0.04
0.00 0.00 0.00 0.00 0.00 0.00 0.00 0.00 0.03 0.03 0.00 0.00 0.00 0.00 0.00 0.00 0.00 0.05 0.16 0.05 0.03 0.01 0.09 0.05 0.01 0.00 0.00 0.00 0.00 0.00 0.00 0.00 0.00 0.00 0.00 0.00 0.00 0.00 0.00 0.00 0.00 0.00 0.00
0.00 0.00 0.00 0.00 0.00 0.00 0.00 0.00 0.01 0.00 0.00 0.00 0.00 0.00 0.00 0.00 0.00 0.02 0.06 0.03 0.01 0.00 0.08 0.08 0.00 0.00 0.00 0.00 0.00 0.00 0.00 0.00 0.00 0.00 0.00 0.00 0.00 0.00 0.00 0.00 0.00 0.00 0.00
0.00 0.00 0.00 0.00 0.00 0.00 0.00 0.00 0.01 0.00 0.00 0.00 0.00 0.00 0.01 0.03 0.00 0.00 0.00 0.02 0.01 0.00 0.02 0.08 0.02 0.00 0.00 0.00 0.00 0.00 0.00 0.00 0.00 0.00 0.00 0.00 0.00 0.00 0.00 0.00 0.00 0.00 0.00
0.00 0.00 0.00 0.00 0.00 0.00 0.01 0.00 0.01 0.01 0.00 0.00 0.00 0.00 0.00 0.00 0.00 0.00 0.00 0.02 0.02 0.00 0.00 0.01 0.00 0.00 0.00 0.00 0.00 0.00 0.00 0.00 0.00 0.00 0.00 0.00 0.00 0.00 0.00 0.00 0.00 0.00 0.00

GFSSE_prec_precacc24_036.txt.gz
Total_Precipitation_Accumulation
0.35 0.36 0.68 0.74 0.58 0.47 0.18 0.12 0.07 0.04 0.04 0.01 0.00 0.00 0.00 0.00 0.00 0.00 0.00 0.02 0.13 0.18 0.07 0.01 0.09 0.02 0.13 0.14 0.08 0.03 0.05 0.04 0.02 0.00 0.02 0.03 0.05 0.06 0.05 0.07 0.15 0.02 0.03
0.06 0.29 0.72 0.74 0.53 0.23 0.12 0.07 0.02 0.02 0.01 0.00 0.00 0.00 0.00 0.00 0.00 0.02 0.03 0.08 0.06 0.04 0.10 0.01 0.00 0.02 0.05 0.07 0.15 0.03 0.09 0.13 0.17 0.15 0.05 0.03 0.13 0.30 0.09 0.07 0.20 0.03 0.06
0.08 0.16 0.41 0.72 0.40 0.09 0.07 0.03 0.01 0.00 0.00 0.00 0.00 0.00 0.01 0.01 0.00 0.00 0.01 0.02 0.01 0.02 0.06 0.05 0.03 0.01 0.04 0.09 0.06 0.03 0.05 0.07 0.12 0.30 0.34 0.03 0.04 0.19 0.06 0.21 0.18 0.06 0.12
0.01 0.04 0.25 0.63 0.17 0.05 0.03 0.01 0.00 0.00 0.00 0.00 0.00 0.01 0.01 0.01 0.00 0.00 0.01 0.01 0.01 0.03 0.05 0.05 0.06 0.05 0.09 0.13 0.15 0.13 0.07 0.05 0.10 0.16 0.12 0.02 0.04 0.12 0.15 0.17 0.11 0.11 0.09
0.02 0.02 0.19 0.24 0.08 0.04 0.02 0.00 0.00 0.00 0.00 0.00 0.00 0.00 0.00 0.00 0.00 0.00 0.00 0.02 0.02 0.01 0.01 0.01 0.01 0.03 0.11 0.07 0.19 0.33 0.40 0.37 0.27 0.19 0.05 0.07 0.01 0.03 0.13 0.15 0.08 0.07 0.11
0.01 0.04 0.13 0.08 0.02 0.01 0.00 0.00 0.00 0.00 0.00 0.00 0.00 0.00 0.00 0.00 0.00 0.00 0.01 0.04 0.04 0.01 0.00 0.00 0.00 0.00 0.05 0.15 0.18 0.37 0.49 0.58 0.60 0.21 0.05 0.05 0.04 0.01 0.09 0.25 0.12 0.05 0.02
0.02 0.04 0.02 0.08 0.03 0.00 0.00 0.00 0.00 0.00 0.00 0.00 0.00 0.00 0.00 0.00 0.00 0.00 0.00 0.03 0.03 0.00 0.00 0.00 0.00 0.00 0.00 0.05 0.13 0.26 0.30 0.42 0.47 0.86 0.39 0.15 0.10 0.05 0.15 0.14 0.03 0.05 0.08
0.01 0.00 0.00 0.02 0.01 0.00 0.00 0.00 0.00 0.00 0.00 0.00 0.00 0.00 0.00 0.01 0.00 0.00 0.00 0.00 0.00 0.00 0.00 0.00 0.01 0.00 0.01 0.04 0.10 0.15 0.17 0.26 0.29 0.32 0.88 0.22 0.09 0.20 0.12 0.06 0.02 0.04 0.04
0.00 0.00 0.00 0.00 0.00 0.01 0.00 0.00 0.00 0.00 0.00 0.00 0.00 0.00 0.00 0.02 0.01 0.00 0.00 0.00 0.00 0.00 0.01 0.01 0.01 0.01 0.02 0.07 0.08 0.10 0.16 0.18 0.34 0.81 1.21 0.33 0.14 0.19 0.08 0.02 0.03 0.03 0.02
0.00 0.00 0.00 0.00 0.00 0.00 0.00 0.00 0.00 0.00 0.00 0.00 0.00 0.00 0.02 0.02 0.01 0.01 0.01 0.02 0.00 0.00 0.01 0.02 0.05 0.03 0.05 0.06 0.11 0.10 0.13 0.11 0.15 0.06 1.30 0.31 0.24 0.16 0.01 0.01 0.03 0.01 0.03
0.00 0.00 0.00 0.00 0.00 0.00 0.00 0.00 0.00 0.00 0.00 0.00 0.02 0.06 0.25 0.23 0.15 0.06 0.13 0.07 0.02 0.03 0.00 0.00 0.03 0.06 0.08 0.07 0.10 0.15 0.12 0.05 0.03 0.04 0.13 0.05 0.15 0.16 0.01 0.01 0.01 0.01 0.01
0.00 0.00 0.00 0.00 0.00 0.00 0.00 0.00 0.00 0.00 0.00 0.00 0.05 0.37 0.59 0.18 0.14 0.11 0.12 0.05 0.07 0.04 0.00 0.04 0.06 0.09 0.04 0.00 0.01 0.06 0.07 0.00 0.01 0.02 0.01 0.01 0.17 0.23 0.01 0.02 0.01 0.02 0.03
0.00 0.00 0.00 0.00 0.00 0.00 0.00 0.00 0.00 0.00 0.00 0.00 0.07 0.64 0.75 0.34 0.20 0.23 0.06 0.01 0.04 0.11 0.10 0.42 0.19 0.03 0.01 0.00 0.00 0.00 0.00 0.00 0.01 0.01 0.00 0.01 0.18 0.60 0.16 0.06 0.03 0.02 0.02
0.00 0.00 0.00 0.00 0.00 0.00 0.00 0.00 0.00 0.00 0.00 0.00 0.01 0.09 0.21 0.31 0.24 0.30 0.14 0.06 0.12 0.10 0.33 0.24 0.15 0.05 0.01 0.00 0.00 0.00 0.00 0.00 0.00 0.00 0.00 0.03 0.07 0.46 0.75 0.33 0.04 0.01 0.03
0.00 0.00 0.00 0.00 0.00 0.00 0.00 0.00 0.00 0.00 0.00 0.00 0.00 0.00 0.13 0.13 0.08 0.07 0.11 0.11 0.10 0.12 0.15 0.08 0.12 0.07 0.05 0.00 0.00 0.00 0.00 0.00 0.00 0.00 0.00 0.04 0.08 0.14 0.43 0.67 0.33 0.09 0.03
0.00 0.00 0.00 0.00 0.00 0.00 0.00 0.00 0.00 0.00 0.00 0.00 0.00 0.00 0.01 0.04 0.03 0.05 0.07 0.06 0.04 0.05 0.12 0.18 0.13 0.08 0.02 0.00 0.00 0.00 0.00 0.00 0.00 0.00 0.00 0.01 0.06 0.07 0.16 0.38 0.64 0.61 0.22
0.00 0.00 0.00 0.00 0.00 0.00 0.00 0.00 0.00 0.00 0.00 0.00 0.00 0.00 0.00 0.01 0.02 0.06 0.11 0.07 0.04 0.09 0.15 0.10 0.09 0.06 0.00 0.00 0.00 0.00 0.00 0.00 0.00 0.00 0.00 0.00 0.01 0.05 0.09 0.16 0.28 0.52 0.72
0.00 0.00 0.00 0.00 0.00 0.00 0.00 0.00 0.00 0.00 0.00 0.00 0.00 0.00 0.00 0.00 0.00 0.08 0.21 0.17 0.06 0.06 0.09 0.05 0.08 0.06 0.00 0.00 0.00 0.00 0.00 0.00 0.00 0.00 0.00 0.00 0.00 0.00 0.04 0.11 0.12 0.16 0.30
0.00 0.00 0.00 0.00 0.00 0.00 0.00 0.00 0.00 0.00 0.00 0.00 0.00 0.00 0.00 0.00 0.00 0.11 0.21 0.22 0.04 0.02 0.04 0.06 0.03 0.01 0.00 0.00 0.00 0.00 0.00 0.00 0.00 0.00 0.00 0.00 0.00 0.00 0.00 0.02 0.04 0.06 0.04
0.00 0.00 0.00 0.00 0.00 0.00 0.00 0.00 0.00 0.00 0.00 0.00 0.00 0.00 0.00 0.00 0.01 0.02 0.08 0.14 0.04 0.01 0.03 0.04 0.03 0.00 0.00 0.00 0.00 0.00 0.00 0.00 0.00 0.00 0.00 0.00 0.00 0.01 0.00 0.00 0.01 0.03 0.07
0.00 0.00 0.00 0.00 0.00 0.00 0.00 0.00 0.00 0.00 0.00 0.00 0.00 0.00 0.00 0.00 0.01 0.05 0.14 0.14 0.04 0.03 0.09 0.05 0.02 0.00 0.00 0.00 0.00 0.00 0.00 0.00 0.00 0.00 0.00 0.00 0.00 0.00 0.00 0.00 0.00 0.02 0.04
0.00 0.00 0.00 0.00 0.00 0.00 0.00 0.00 0.00 0.00 0.00 0.00 0.00 0.00 0.00 0.00 0.01 0.03 0.16 0.12 0.05 0.07 0.07 0.07 0.03 0.02 0.00 0.00 0.00 0.00 0.00 0.00 0.00 0.00 0.00 0.00 0.00 0.00 0.00 0.00 0.00 0.00 0.02
0.00 0.00 0.00 0.00 0.00 0.00 0.00 0.00 0.00 0.00 0.00 0.00 0.00 0.00 0.00 0.00 0.00 0.10 0.20 0.07 0.07 0.03 0.19 0.11 0.01 0.00 0.00 0.00 0.00 0.00 0.01 0.01 0.00 0.00 0.00 0.00 0.00 0.00 0.00 0.00 0.00 0.00 0.00
0.00 0.00 0.00 0.00 0.00 0.00 0.00 0.00 0.00 0.00 0.00 0.00 0.00 0.00 0.00 0.00 0.00 0.03 0.07 0.03 0.03 0.03 0.12 0.12 0.00 0.00 0.00 0.00 0.00 0.00 0.00 0.00 0.00 0.00 0.00 0.00 0.00 0.00 0.00 0.00 0.00 0.00 0.00
0.00 0.00 0.00 0.00 0.00 0.00 0.00 0.00 0.00 0.00 0.00 0.00 0.00 0.00 0.00 0.03 0.01 0.00 0.00 0.02 0.02 0.01 0.07 0.11 0.03 0.00 0.00 0.00 0.00 0.00 0.00 0.00 0.00 0.00 0.00 0.00 0.00 0.00 0.00 0.00 0.00 0.00 0.00
0.00 0.00 0.00 0.00 0.00 0.00 0.00 0.00 0.00 0.00 0.00 0.00 0.00 0.00 0.00 0.00 0.00 0.00 0.01 0.03 0.04 0.01 0.02 0.04 0.03 0.00 0.00 0.00 0.00 0.00 0.00 0.00 0.00 0.00 0.00 0.00 0.00 0.00 0.00 0.00 0.00 0.00 0.00